• In Österreich
  • Länderverzeichnis
  • Für 7 Tage
  • Wassertemperatur
  • Satellitenkarten
  • Wetterkarte
  • News
  • Widgets
  • user-avatar
    Anmelden

    Stündliche Wetter Borowec

    Heute, 11 Dezember, Montag

    Zeit Temperatur Niederschläge Wind Luftdruck Luftfeuchtigkeit
    00:00 -2°C° 0 mm 2 m/S 710 mmHg 63%
    01:00 -2°C° 0 mm 2 m/S 710 mmHg 63%
    02:00 -2°C° 0 mm 2 m/S 710 mmHg 64%
    03:00 -1°C° 0 mm 2 m/S 710 mmHg 64%
    04:00 -1°C° 0 mm 2 m/S 710 mmHg 64%
    05:00 -1°C° 0 mm 2 m/S 710 mmHg 64%
    06:00 -1°C° 0 mm 2 m/S 710 mmHg 64%
    07:00 -1°C° 0 mm 2 m/S 710 mmHg 63%
    08:00 -1°C° 0 mm 2 m/S 711 mmHg 63%
    09:00 +2°C° 0 mm 2 m/S 711 mmHg 60%
    10:00 +4°C° 0 mm 2 m/S 711 mmHg 57%
    11:00 +6°C° 0 mm 2 m/S 712 mmHg 54%
    12:00 +7°C° 0 mm 2 m/S 712 mmHg 54%
    13:00 +8°C° 0 mm 2 m/S 711 mmHg 53%
    14:00 +9°C° 0 mm 2 m/S 711 mmHg 53%
    15:00 +7°C° 0 mm 2 m/S 711 mmHg 58%
    16:00 +6°C° 0 mm 2 m/S 711 mmHg 63%
    17:00 +4°C° 0 mm 2 m/S 711 mmHg 68%
    18:00 +3°C° 0 mm 2 m/S 711 mmHg 69%
    19:00 +3°C° 0 mm 2 m/S 711 mmHg 69%
    20:00 +2°C° 0 mm 2 m/S 712 mmHg 70%
    21:00 +2°C° 0 mm 2 m/S 712 mmHg 69%
    22:00 +2°C° 0 mm 2 m/S 712 mmHg 69%
    23:00 +2°C° 0 mm 2 m/S 712 mmHg 68%

    Morgen, 12 Dezember, Dienstag

    Zeit Temperatur Niederschläge Wind Luftdruck Luftfeuchtigkeit
    00:00 +2°C° 0 mm 2 m/S 712 mmHg 68%
    01:00 +2°C° 0 mm 2 m/S 712 mmHg 67%
    02:00 +2°C° 0 mm 2 m/S 712 mmHg 67%
    03:00 +2°C° 0 mm 2 m/S 712 mmHg 67%
    04:00 +2°C° 0 mm 2 m/S 712 mmHg 68%
    05:00 +3°C° 0 mm 2 m/S 712 mmHg 68%
    06:00 +3°C° 0 mm 2 m/S 712 mmHg 68%
    07:00 +3°C° 0 mm 2 m/S 712 mmHg 69%
    08:00 +3°C° 0 mm 2 m/S 712 mmHg 70%
    09:00 +5°C° 0 mm 2 m/S 713 mmHg 67%
    10:00 +7°C° 0 mm 2 m/S 713 mmHg 65%
    11:00 +9°C° 0 mm 2 m/S 713 mmHg 62%
    12:00 +10°C° 0 mm 2 m/S 713 mmHg 62%
    13:00 +12°C° 0 mm 2 m/S 713 mmHg 62%
    14:00 +13°C° 0 mm 1 m/S 713 mmHg 62%
    15:00 +11°C° 0 mm 1 m/S 713 mmHg 67%
    16:00 +10°C° 0 mm 1 m/S 713 mmHg 72%
    17:00 +8°C° 0 mm 1 m/S 712 mmHg 77%
    18:00 +8°C° 0 mm 1 m/S 713 mmHg 78%
    19:00 +7°C° 0 mm 1 m/S 713 mmHg 79%
    20:00 +7°C° 0 mm 1 m/S 713 mmHg 80%
    21:00 +7°C° 0 mm 1 m/S 713 mmHg 81%
    22:00 +6°C° 0 mm 1 m/S 713 mmHg 81%
    23:00 +6°C° 0 mm 1 m/S 713 mmHg 82%

    übermorgen, 13 Dezember, Mittwoch

    Zeit Temperatur Niederschläge Wind Luftdruck Luftfeuchtigkeit
    00:00 +6°C° 0 mm 1 m/S 713 mmHg 83%
    01:00 +6°C° 0 mm 1 m/S 713 mmHg 83%
    02:00 +6°C° 0 mm 1 m/S 713 mmHg 84%
    03:00 +6°C° 0 mm 1 m/S 713 mmHg 84%
    04:00 +6°C° 0 mm 1 m/S 713 mmHg 84%
    05:00 +6°C° 0 mm 1 m/S 712 mmHg 84%
    06:00 +6°C° 0 mm 1 m/S 713 mmHg 83%
    07:00 +6°C° 0 mm 1 m/S 713 mmHg 83%
    08:00 +6°C° 0 mm 1 m/S 713 mmHg 82%
    09:00 +7°C° 0 mm 1 m/S 713 mmHg 78%
    10:00 +9°C° 0 mm 1 m/S 713 mmHg 73%
    11:00 +11°C° 0 mm 1 m/S 713 mmHg 68%
    12:00 +12°C° 0 mm 1 m/S 713 mmHg 67%
    13:00 +12°C° 0 mm 1 m/S 712 mmHg 65%
    14:00 +13°C° 0 mm 1 m/S 712 mmHg 64%
    15:00 +12°C° 0 mm 1 m/S 712 mmHg 68%
    16:00 +11°C° 0 mm 1 m/S 711 mmHg 72%
    17:00 +9°C° 0 mm 1 m/S 711 mmHg 75%
    18:00 +9°C° 0 mm 1 m/S 711 mmHg 75%
    19:00 +9°C° 0 mm 1 m/S 711 mmHg 74%
    20:00 +8°C° 0 mm 1 m/S 711 mmHg 73%
    21:00 +8°C° 0 mm 1 m/S 710 mmHg 73%
    22:00 +8°C° 0 mm 1 m/S 710 mmHg 73%
    23:00 +8°C° 0 mm 1 m/S 710 mmHg 73%

    14 Dezember, Donnerstag

    Zeit Temperatur Niederschläge Wind Luftdruck Luftfeuchtigkeit
    00:00 +8°C° 0 mm 1 m/S 710 mmHg 74%
    01:00 +8°C° 0 mm 1 m/S 709 mmHg 75%
    02:00 +8°C° 0 mm 1 m/S 709 mmHg 76%
    03:00 +7°C° 0,1 mm 1 m/S 709 mmHg 78%
    04:00 +7°C° 0,1 mm 1 m/S 709 mmHg 80%
    05:00 +7°C° 0,1 mm 1 m/S 709 mmHg 83%
    06:00 +7°C° 0,1 mm 1 m/S 709 mmHg 85%
    07:00 +7°C° 0,1 mm 1 m/S 710 mmHg 87%
    08:00 +6°C° 0,1 mm 1 m/S 710 mmHg 88%
    09:00 +8°C° 0 mm 1 m/S 710 mmHg 84%
    10:00 +9°C° 0 mm 1 m/S 710 mmHg 79%
    11:00 +10°C° 0 mm 1 m/S 710 mmHg 74%
    12:00 +10°C° 0 mm 2 m/S 710 mmHg 69%
    13:00 +10°C° 0 mm 2 m/S 710 mmHg 65%
    14:00 +12°C° 0 mm 2 m/S 709 mmHg 60%
    15:00 +10°C° 0 mm 1 m/S 709 mmHg 65%
    16:00 +9°C° 0 mm 1 m/S 709 mmHg 70%
    17:00 +8°C° 0 mm 1 m/S 709 mmHg 75%
    18:00 +7°C° 0 mm 1 m/S 709 mmHg 76%
    19:00 +7°C° 0 mm 1 m/S 710 mmHg 78%
    20:00 +6°C° 0 mm 1 m/S 710 mmHg 79%
    21:00 +6°C° 0 mm 1 m/S 710 mmHg 78%
    22:00 +6°C° 0 mm 1 m/S 710 mmHg 78%
    23:00 +5°C° 0 mm 1 m/S 710 mmHg 78%

    15 Dezember, Freitag

    Zeit Temperatur Niederschläge Wind Luftdruck Luftfeuchtigkeit
    00:00 +5°C° 0 mm 1 m/S 709 mmHg 77%
    01:00 +5°C° 0 mm 1 m/S 709 mmHg 76%
    02:00 +5°C° 0 mm 1 m/S 709 mmHg 75%
    03:00 +5°C° 0 mm 1 m/S 709 mmHg 74%
    04:00 +5°C° 0 mm 1 m/S 708 mmHg 73%
    05:00 +5°C° 0 mm 1 m/S 708 mmHg 73%
    06:00 +5°C° 0 mm 1 m/S 708 mmHg 72%
    07:00 +5°C° 0 mm 1 m/S 709 mmHg 72%
    08:00 +5°C° 0 mm 1 m/S 709 mmHg 71%
    09:00 +5°C° 0 mm 2 m/S 709 mmHg 66%
    10:00 +7°C° 0 mm 2 m/S 709 mmHg 61%
    11:00 +9°C° 0 mm 2 m/S 709 mmHg 56%
    12:00 +10°C° 0 mm 2 m/S 709 mmHg 53%
    13:00 +12°C° 0 mm 2 m/S 708 mmHg 50%
    14:00 +13°C° 0 mm 2 m/S 708 mmHg 47%
    15:00 +10°C° 0 mm 2 m/S 708 mmHg 53%
    16:00 +9°C° 0 mm 2 m/S 707 mmHg 58%
    17:00 +8°C° 0 mm 2 m/S 707 mmHg 64%
    18:00 +7°C° 0 mm 2 m/S 707 mmHg 65%
    19:00 +7°C° 0 mm 2 m/S 707 mmHg 66%
    20:00 +6°C° 0 mm 2 m/S 707 mmHg 67%
    21:00 +6°C° 0 mm 2 m/S 706 mmHg 68%
    22:00 +6°C° 0 mm 2 m/S 706 mmHg 68%
    23:00 +5°C° 0 mm 3 m/S 706 mmHg 68%

    16 Dezember, Samstag

    Zeit Temperatur Niederschläge Wind Luftdruck Luftfeuchtigkeit
    00:00 +5°C° 0 mm 3 m/S 706 mmHg 70%
    01:00 +5°C° 0 mm 3 m/S 706 mmHg 71%
    02:00 +5°C° 0 mm 3 m/S 706 mmHg 73%
    03:00 +5°C° 0 mm 3 m/S 705 mmHg 74%
    04:00 +5°C° 0 mm 3 m/S 705 mmHg 75%
    05:00 +5°C° 0 mm 3 m/S 705 mmHg 76%
    06:00 +5°C° 0 mm 3 m/S 705 mmHg 76%
    07:00 +5°C° 0 mm 3 m/S 705 mmHg 76%
    08:00 +5°C° 0 mm 3 m/S 705 mmHg 76%
    09:00 +7°C° 0 mm 3 m/S 705 mmHg 72%
    10:00 +9°C° 0 mm 3 m/S 705 mmHg 67%
    11:00 +11°C° 0 mm 4 m/S 705 mmHg 62%
    12:00 +11°C° 0 mm 4 m/S 704 mmHg 61%
    13:00 +12°C° 0 mm 4 m/S 704 mmHg 59%
    14:00 +12°C° 0 mm 4 m/S 704 mmHg 58%
    15:00 +11°C° 0 mm 4 m/S 704 mmHg 63%
    16:00 +10°C° 0 mm 3 m/S 703 mmHg 68%
    17:00 +9°C° 0 mm 3 m/S 703 mmHg 73%
    18:00 +9°C° 0 mm 3 m/S 703 mmHg 75%
    19:00 +8°C° 0 mm 3 m/S 703 mmHg 77%
    20:00 +7°C° 0 mm 2 m/S 702 mmHg 79%
    21:00 +8°C° 0 mm 3 m/S 702 mmHg 79%
    22:00 +8°C° 0 mm 3 m/S 702 mmHg 79%
    23:00 +8°C° 0 mm 3 m/S 702 mmHg 79%
    Mehr zeigen